| time (UTC) | temp C | wind direction | speed KPH | gust KPH | rain 1hr cm | rain 24hr cm | rain mn cm | humidity % | barometer mb |
| 20260510204523 | 16 | 351 | 3.2 | 9.7 | 0.00 | 0.00 | 0.00 | 27 | 1017.5 |
| 20260510204008 | 15 | 17 | 1.6 | 8.0 | 0.00 | 0.00 | 0.00 | 27 | 1017.6 |
| 20260510203511 | 16 | 291 | 1.6 | 8.0 | 0.00 | 0.00 | 0.00 | 26 | 1017.7 |
| 20260510203008 | 16 | 313 | 1.6 | 9.7 | 0.00 | 0.00 | 0.00 | 27 | 1017.8 |
| 20260510202504 | 16 | 58 | 0.0 | 9.7 | 0.00 | 0.00 | 0.00 | 28 | 1017.7 |
| 20260510202006 | 16 | 344 | 0.0 | 12.9 | 0.00 | 0.00 | 0.00 | 32 | 1017.7 |
| 20260510201507 | 16 | 45 | 3.2 | 12.9 | 0.00 | 0.00 | 0.00 | 28 | 1017.8 |
| 20260510201008 | 16 | 346 | 1.6 | 9.7 | 0.00 | 0.00 | 0.00 | 26 | 1017.8 |
| 20260510200507 | 16 | 5 | 3.2 | 9.7 | 0.00 | 0.00 | 0.00 | 25 | 1017.7 |
| 20260510200021 | 16 | 191 | 3.2 | 9.7 | 0.00 | 0.00 | 0.00 | 28 | 1017.9 |
| 20260510195508 | 15 | 315 | 1.6 | 9.7 | 0.00 | 0.00 | 0.00 | 27 | 1018.0 |
| 20260510195009 | 15 | 352 | 1.6 | 8.0 | 0.00 | 0.00 | 0.00 | 27 | 1018.2 |
| 20260510194529 | 15 | 249 | 0.0 | 12.9 | 0.00 | 0.00 | 0.00 | 30 | 1018.3 |
| 20260510194015 | 15 | 316 | 1.6 | 12.9 | 0.00 | 0.00 | 0.00 | 28 | 1018.3 |
| 20260510193511 | 15 | 277 | 1.6 | 9.7 | 0.00 | 0.00 | 0.00 | 27 | 1018.3 |
| 20260510193024 | 16 | 228 | 1.6 | 8.0 | 0.00 | 0.00 | 0.00 | 26 | 1018.2 |
| 20260510192508 | 16 | 203 | 3.2 | 11.3 | 0.00 | 0.00 | 0.00 | 28 | 1018.3 |
| 20260510192007 | 16 | 329 | 4.8 | 11.3 | 0.00 | 0.00 | 0.00 | 25 | 1018.3 |
| 20260510191506 | 16 | 246 | 3.2 | 11.3 | 0.00 | 0.03 | 0.00 | 27 | 1018.3 |
| 20260510191006 | 15 | 360 | 4.8 | 9.7 | 0.00 | 0.03 | 0.00 | 26 | 1018.2 |
| 20260510190504 | 15 | 336 | 0.0 | 9.7 | 0.00 | 0.13 | 0.00 | 27 | 1018.3 |
| 20260510190016 | 16 | 304 | 1.6 | 9.7 | 0.00 | 0.25 | 0.00 | 27 | 1018.4 |
| 20260510185507 | 16 | 14 | 1.6 | 8.0 | 0.00 | 0.30 | 0.00 | 26 | 1018.3 |
| 20260510185017 | 16 | 335 | 4.8 | 8.0 | 0.00 | 0.30 | 0.00 | 27 | 1018.3 |
| 20260510184517 | 16 | 19 | 1.6 | 8.0 | 0.00 | 0.30 | 0.00 | 28 | 1018.2 |
| 20260510184010 | 16 | 352 | 3.2 | 12.9 | 0.00 | 0.30 | 0.00 | 28 | 1018.2 |
| 20260510183511 | 16 | 264 | 1.6 | 12.9 | 0.00 | 0.30 | 0.00 | 27 | 1018.2 |
| 20260510183024 | 16 | 317 | 1.6 | 9.7 | 0.00 | 0.30 | 0.00 | 28 | 1018.1 |
| 20260510182511 | 16 | 232 | 3.2 | 9.7 | 0.00 | 0.30 | 0.00 | 26 | 1018.2 |
| 20260510182014 | 16 | 250 | 1.6 | 6.4 | 0.00 | 0.30 | 0.00 | 26 | 1018.0 |
| 20260510181526 | 16 | 25 | 3.2 | 8.0 | 0.00 | 0.30 | 0.00 | 28 | 1018.0 |
| 20260510181004 | 15 | 285 | 1.6 | 8.0 | 0.00 | 0.30 | 0.00 | 28 | 1018.0 |
| 20260510180504 | 16 | 163 | 1.6 | 12.9 | 0.00 | 0.30 | 0.00 | 28 | 1018.0 |
| 20260510180022 | 15 | 274 | 3.2 | 12.9 | 0.00 | 0.30 | 0.00 | 28 | 1017.9 |
| 20260510175507 | 15 | 172 | 1.6 | 12.9 | 0.00 | 0.30 | 0.00 | 27 | 1017.9 |
| 20260510175011 | 15 | 115 | 3.2 | 12.9 | 0.00 | 0.30 | 0.00 | 25 | 1018.0 |
| 20260510174518 | 15 | 62 | 1.6 | 9.7 | 0.00 | 0.30 | 0.00 | 28 | 1017.9 |
| 20260510174008 | 15 | 269 | 1.6 | 9.7 | 0.00 | 0.30 | 0.00 | 27 | 1017.9 |
| 20260510173507 | 15 | 327 | 1.6 | 9.7 | 0.00 | 0.30 | 0.00 | 29 | 1017.9 |
| 20260510173022 | 15 | 52 | 3.2 | 12.9 | 0.00 | 0.30 | 0.00 | 30 | 1018.0 |
| 20260510172507 | 15 | 360 | 3.2 | 12.9 | 0.00 | 0.30 | 0.00 | 28 | 1017.8 |
| 20260510172013 | 14 | 276 | 4.8 | 14.5 | 0.00 | 0.30 | 0.00 | 28 | 1017.8 |
| 20260510171525 | 14 | 360 | 0.0 | 14.5 | 0.00 | 0.30 | 0.00 | 30 | 1017.9 |
| 20260510171006 | 14 | 360 | 4.8 | 9.7 | 0.00 | 0.30 | 0.00 | 27 | 1018.0 |
| 20260510170512 | 14 | 286 | 1.6 | 9.7 | 0.00 | 0.30 | 0.00 | 27 | 1018.1 |
| 20260510170012 | 13 | 20 | 3.2 | 12.9 | 0.00 | 0.30 | 0.00 | 29 | 1018.1 |
| 20260510165504 | 13 | 294 | 3.2 | 12.9 | 0.00 | 0.30 | 0.00 | 27 | 1018.1 |
| 20260510165003 | 13 | 336 | 4.8 | 14.5 | 0.00 | 0.30 | 0.00 | 27 | 1018.2 |
| 20260510164515 | 13 | 327 | 3.2 | 14.5 | 0.00 | 0.30 | 0.00 | 28 | 1018.1 |
| 20260510164008 | 13 | 215 | 3.2 | 9.7 | 0.00 | 0.30 | 0.00 | 29 | 1018.0 |
| 20260510163508 | 13 | 227 | 4.8 | 11.3 | 0.00 | 0.30 | 0.00 | 30 | 1018.0 |
| 20260510163029 | 13 | 36 | 6.4 | 11.3 | 0.00 | 0.30 | 0.00 | 29 | 1018.0 |
| 20260510162508 | 13 | 342 | 3.2 | 9.7 | 0.00 | 0.30 | 0.00 | 29 | 1018.1 |
| 20260510162012 | 13 | 294 | 3.2 | 12.9 | 0.00 | 0.30 | 0.00 | 29 | 1018.0 |
| 20260510161521 | 13 | 348 | 1.6 | 12.9 | 0.00 | 0.30 | 0.00 | 31 | 1018.0 |
| 20260510161011 | 13 | 281 | 3.2 | 12.9 | 0.00 | 0.30 | 0.00 | 31 | 1017.9 |
| 20260510160511 | 13 | 182 | 3.2 | 11.3 | 0.00 | 0.30 | 0.00 | 30 | 1017.8 |
| 20260510160028 | 13 | 301 | 4.8 | 12.9 | 0.00 | 0.30 | 0.00 | 37 | 1017.8 |
| 20260510155513 | 13 | 333 | 3.2 | 12.9 | 0.00 | 0.30 | 0.00 | 28 | 1017.8 |
| 20260510155005 | 13 | 245 | 1.6 | 9.7 | 0.00 | 0.30 | 0.00 | 31 | 1017.7 |
| 20260510154510 | 13 | 338 | 3.2 | 11.3 | 0.00 | 0.30 | 0.00 | 31 | 1017.7 |
| 20260510154006 | 13 | 323 | 4.8 | 11.3 | 0.00 | 0.30 | 0.00 | 29 | 1017.7 |
| 20260510153510 | 13 | 349 | 3.2 | 8.0 | 0.00 | 0.30 | 0.00 | 31 | 1017.7 |
| 20260510153018 | 13 | 338 | 1.6 | 14.5 | 0.00 | 0.30 | 0.00 | 33 | 1017.6 |
| 20260510152507 | 13 | 348 | 3.2 | 14.5 | 0.00 | 0.30 | 0.00 | 32 | 1017.5 |
| 20260510152011 | 13 | 352 | 4.8 | 14.5 | 0.00 | 0.30 | 0.00 | 36 | 1017.5 |
| 20260510151522 | 12 | 140 | 4.8 | 14.5 | 0.00 | 0.30 | 0.00 | 30 | 1017.4 |
| 20260510151009 | 12 | 343 | 1.6 | 11.3 | 0.00 | 0.30 | 0.00 | 34 | 1017.4 |
| 20260510150510 | 12 | 236 | 3.2 | 11.3 | 0.00 | 0.30 | 0.00 | 33 | 1017.3 |
| 20260510150026 | 12 | 249 | 3.2 | 6.4 | 0.00 | 0.30 | 0.00 | 33 | 1017.3 |
| 20260510145513 | 12 | 127 | 1.6 | 8.0 | 0.00 | 0.30 | 0.00 | 33 | 1017.2 |
| 20260510145013 | 12 | 352 | 3.2 | 8.0 | 0.00 | 0.30 | 0.00 | 33 | 1017.2 |
| 20260510144537 | 12 | 284 | 1.6 | 6.4 | 0.00 | 0.30 | 0.00 | 34 | 1017.2 |
| 20260510144010 | 12 | 14 | 1.6 | 6.4 | 0.00 | 0.30 | 0.00 | 36 | 1017.2 |
| 20260510143507 | 12 | 352 | 3.2 | 6.4 | 0.00 | 0.30 | 0.00 | 34 | 1017.1 |
| 20260510143018 | 12 | 29 | 3.2 | 8.0 | 0.00 | 0.30 | 0.00 | 37 | 1017.1 |
| 20260510142507 | 12 | 67 | 1.6 | 8.0 | 0.00 | 0.30 | 0.00 | 37 | 1017.1 |
| 20260510142013 | 11 | 68 | 1.6 | 6.4 | 0.00 | 0.30 | 0.00 | 35 | 1017.1 |
| 20260510141531 | 11 | 40 | 1.6 | 6.4 | 0.00 | 0.30 | 0.00 | 37 | 1017.0 |
| 20260510141009 | 11 | 352 | 3.2 | 8.0 | 0.00 | 0.30 | 0.00 | 35 | 1017.1 |
| 20260510140511 | 11 | 23 | 1.6 | 8.0 | 0.00 | 0.30 | 0.00 | 38 | 1017.1 |
| 20260510140028 | 11 | 338 | 1.6 | 8.0 | 0.00 | 0.30 | 0.00 | 40 | 1017.1 |
| 20260510135510 | 11 | 328 | 3.2 | 8.0 | 0.00 | 0.30 | 0.00 | 39 | 1017.1 |
| 20260510135011 | 11 | 46 | 1.6 | 6.4 | 0.00 | 0.30 | 0.00 | 39 | 1017.1 |
| 20260510134528 | 11 | 298 | 1.6 | 6.4 | 0.00 | 0.30 | 0.00 | 38 | 1017.1 |
| 20260510134010 | 11 | 309 | 0.0 | 4.8 | 0.00 | 0.30 | 0.00 | 40 | 1017.0 |
| 20260510133509 | 11 | 284 | 1.6 | 4.8 | 0.00 | 0.30 | 0.00 | 40 | 1017.0 |
| 20260510133032 | 11 | 61 | 1.6 | 4.8 | 0.00 | 0.30 | 0.00 | 42 | 1017.0 |
| 20260510132508 | 11 | 33 | 1.6 | 4.8 | 0.00 | 0.30 | 0.00 | 41 | 1016.9 |
| 20260510132012 | 11 | 40 | 1.6 | 6.4 | 0.00 | 0.30 | 0.00 | 42 | 1017.0 |
| 20260510131519 | 10 | 42 | 1.6 | 8.0 | 0.00 | 0.30 | 0.00 | 41 | 1016.8 |
| 20260510131008 | 10 | 37 | 3.2 | 9.7 | 0.00 | 0.30 | 0.00 | 42 | 1016.7 |
| 20260510130511 | 10 | 111 | 3.2 | 8.0 | 0.00 | 0.30 | 0.00 | 41 | 1016.7 |
| 20260510130021 | 10 | 46 | 1.6 | 8.0 | 0.00 | 0.30 | 0.00 | 42 | 1016.6 |
| 20260510125510 | 10 | 40 | 1.6 | 6.4 | 0.00 | 0.30 | 0.00 | 42 | 1016.5 |
| 20260510125010 | 10 | 34 | 1.6 | 6.4 | 0.00 | 0.30 | 0.00 | 43 | 1016.5 |
| 20260510124527 | 10 | 34 | 3.2 | 6.4 | 0.00 | 0.30 | 0.00 | 41 | 1016.5 |
| 20260510124007 | 10 | 343 | 0.0 | 4.8 | 0.00 | 0.30 | 0.00 | 44 | 1016.5 |
| 20260510123515 | 10 | 360 | 1.6 | 4.8 | 0.00 | 0.30 | 0.00 | 44 | 1016.4 |
| 20260510123028 | 10 | 290 | 1.6 | 4.8 | 0.00 | 0.30 | 0.00 | 45 | 1016.4 |
| 20260510122507 | 9 | 341 | 0.0 | 4.8 | 0.00 | 0.30 | 0.00 | 46 | 1016.3 |
| 20260510122007 | 9 | 320 | 1.6 | 4.8 | 0.00 | 0.30 | 0.00 | 46 | 1016.3 |
| 20260510121514 | 9 | 137 | 1.6 | 6.4 | 0.00 | 0.30 | 0.00 | 49 | 1016.3 |
| 20260510121008 | 8 | 316 | 1.6 | 6.4 | 0.00 | 0.30 | 0.00 | 50 | 1016.3 |
| 20260510120511 | 8 | 343 | 1.6 | 6.4 | 0.00 | 0.30 | 0.00 | 51 | 1016.2 |
| 20260510120019 | 8 | 39 | 1.6 | 3.2 | 0.00 | 0.30 | 0.00 | 53 | 1016.1 |
| 20260510115507 | 8 | 325 | 0.0 | 3.2 | 0.00 | 0.30 | 0.00 | 54 | 1016.0 |
| 20260510115011 | 7 | 325 | 1.6 | 3.2 | 0.00 | 0.30 | 0.00 | 55 | 1015.8 |
| 20260510114525 | 7 | 342 | 0.0 | 3.2 | 0.00 | 0.30 | 0.00 | 59 | 1015.7 |
| 20260510114013 | 6 | 340 | 0.0 | 11.3 | 0.00 | 0.30 | 0.00 | 62 | 1015.6 |
| 20260510113512 | 6 | 323 | 0.0 | 11.3 | 0.00 | 0.30 | 0.00 | 63 | 1015.6 |
| 20260510113029 | 5 | 313 | 0.0 | 3.2 | 0.00 | 0.30 | 0.00 | 65 | 1015.5 |
| 20260510112510 | 5 | 313 | 0.0 | 3.2 | 0.00 | 0.30 | 0.00 | 67 | 1015.5 |
| 20260510112010 | 5 | 313 | 0.0 | 1.6 | 0.00 | 0.30 | 0.00 | 71 | 1015.4 |
| 20260510111514 | 4 | 311 | 0.0 | 0.0 | 0.00 | 0.30 | 0.00 | 75 | 1015.4 |
| 20260510111007 | 4 | 311 | 0.0 | 0.0 | 0.00 | 0.30 | 0.00 | 76 | 1015.3 |
| 20260510110507 | 4 | 311 | 0.0 | 3.2 | 0.00 | 0.30 | 0.00 | 75 | 1015.2 |
| 20260510110026 | 4 | 311 | 0.0 | 3.2 | 0.00 | 0.30 | 0.00 | 75 | 1015.1 |
| 20260510105508 | 4 | 311 | 0.0 | 3.2 | 0.00 | 0.30 | 0.00 | 73 | 1015.1 |
| 20260510105010 | 4 | 311 | 0.0 | 0.0 | 0.00 | 0.30 | 0.00 | 75 | 1015.0 |
| 20260510104524 | 4 | 311 | 0.0 | 0.0 | 0.00 | 0.30 | 0.00 | 74 | 1015.2 |
| 20260510104011 | 4 | 311 | 0.0 | 0.0 | 0.00 | 0.30 | 0.00 | 72 | 1015.1 |
| 20260510103510 | 5 | 311 | 0.0 | 1.6 | 0.00 | 0.30 | 0.00 | 72 | 1014.9 |
| 20260510103028 | 5 | 311 | 0.0 | 1.6 | 0.00 | 0.30 | 0.00 | 71 | 1014.8 |
| 20260510102510 | 5 | 311 | 0.0 | 1.6 | 0.00 | 0.30 | 0.00 | 70 | 1014.8 |
| 20260510102016 | 5 | 311 | 0.0 | 1.6 | 0.00 | 0.30 | 0.00 | 70 | 1014.7 |
| 20260510101530 | 5 | 311 | 0.0 | 3.2 | 0.00 | 0.30 | 0.00 | 69 | 1014.6 |
| 20260510101009 | 5 | 311 | 0.0 | 3.2 | 0.00 | 0.30 | 0.00 | 68 | 1014.5 |
| 20260510100505 | 5 | 311 | 0.0 | 3.2 | 0.00 | 0.30 | 0.00 | 67 | 1014.5 |
| 20260510100011 | 5 | 311 | 0.0 | 3.2 | 0.00 | 0.30 | 0.00 | 66 | 1014.5 |
| 20260510095503 | 5 | 311 | 0.0 | 3.2 | 0.00 | 0.30 | 0.00 | 66 | 1014.4 |
| 20260510095004 | 6 | 311 | 0.0 | 0.0 | 0.00 | 0.30 | 0.00 | 65 | 1014.4 |
| 20260510094503 | 6 | 311 | 0.0 | 0.0 | 0.00 | 0.30 | 0.00 | 65 | 1014.3 |
| 20260510094003 | 6 | 311 | 0.0 | 3.2 | 0.00 | 0.30 | 0.00 | 64 | 1014.3 |
| 20260510093504 | 6 | 311 | 0.0 | 3.2 | 0.00 | 0.30 | 0.00 | 62 | 1014.4 |
| 20260510093006 | 6 | 311 | 0.0 | 3.2 | 0.00 | 0.30 | 0.00 | 62 | 1014.3 |
| 20260510092503 | 6 | 311 | 0.0 | 3.2 | 0.00 | 0.30 | 0.00 | 61 | 1014.2 |
| 20260510092006 | 6 | 311 | 0.0 | 3.2 | 0.00 | 0.30 | 0.00 | 60 | 1014.3 |
| 20260510091512 | 7 | 311 | 0.0 | 3.2 | 0.00 | 0.30 | 0.00 | 61 | 1014.2 |
| 20260510091009 | 7 | 312 | 0.0 | 3.2 | 0.00 | 0.30 | 0.00 | 59 | 1014.2 |
| 20260510090503 | 7 | 311 | 0.0 | 3.2 | 0.00 | 0.30 | 0.00 | 60 | 1014.0 |
| 20260510090016 | 7 | 313 | 0.0 | 3.2 | 0.00 | 0.30 | 0.00 | 58 | 1013.9 |
| 20260510085504 | 7 | 302 | 0.0 | 3.2 | 0.00 | 0.30 | 0.00 | 59 | 1013.7 |
| 20260510085004 | 7 | 304 | 0.0 | 3.2 | 0.00 | 0.30 | 0.00 | 59 | 1013.6 |
| 20260510084511 | 7 | 299 | 0.0 | 3.2 | 0.00 | 0.30 | 0.00 | 58 | 1013.5 |
| 20260510084006 | 7 | 292 | 0.0 | 3.2 | 0.00 | 0.30 | 0.00 | 57 | 1013.4 |
| 20260510083505 | 7 | 292 | 1.6 | 3.2 | 0.00 | 0.30 | 0.00 | 58 | 1013.2 |
| 20260510083005 | 7 | 326 | 0.0 | 3.2 | 0.00 | 0.30 | 0.00 | 57 | 1013.0 |
| 20260510082503 | 7 | 321 | 1.6 | 3.2 | 0.00 | 0.30 | 0.00 | 57 | 1012.9 |
| 20260510082003 | 7 | 321 | 1.6 | 3.2 | 0.00 | 0.30 | 0.00 | 58 | 1012.9 |
| 20260510081525 | 7 | 349 | 0.0 | 3.2 | 0.00 | 0.30 | 0.00 | 58 | 1012.7 |
| 20260510081004 | 7 | 333 | 0.0 | 3.2 | 0.00 | 0.30 | 0.00 | 58 | 1012.6 |
| 20260510080506 | 7 | 339 | 1.6 | 3.2 | 0.00 | 0.30 | 0.00 | 58 | 1012.5 |
| 20260510080013 | 7 | 311 | 0.0 | 3.2 | 0.00 | 0.30 | 0.00 | 59 | 1012.4 |
| 20260510075503 | 8 | 310 | 0.0 | 3.2 | 0.00 | 0.30 | 0.00 | 59 | 1012.3 |
| 20260510075006 | 8 | 310 | 0.0 | 0.0 | 0.00 | 0.30 | 0.00 | 59 | 1012.2 |
| 20260510074514 | 8 | 310 | 0.0 | 0.0 | 0.00 | 0.30 | 0.00 | 60 | 1012.0 |
| 20260510074003 | 8 | 310 | 0.0 | 3.2 | 0.00 | 0.30 | 0.00 | 56 | 1011.9 |
| 20260510073504 | 8 | 310 | 0.0 | 3.2 | 0.00 | 0.30 | 0.00 | 57 | 1011.7 |
| 20260510073014 | 8 | 345 | 0.0 | 3.2 | 0.00 | 0.30 | 0.00 | 60 | 1011.6 |
| 20260510072502 | 8 | 346 | 0.0 | 3.2 | 0.00 | 0.30 | 0.00 | 59 | 1011.6 |
| 20260510072004 | 8 | 344 | 0.0 | 3.2 | 0.00 | 0.30 | 0.00 | 58 | 1011.5 |
| 20260510071505 | 8 | 281 | 0.0 | 3.2 | 0.00 | 0.30 | 0.00 | 61 | 1011.5 |
| 20260510071003 | 8 | 313 | 0.0 | 3.2 | 0.00 | 0.30 | 0.00 | 61 | 1011.4 |
| 20260510070503 | 8 | 311 | 0.0 | 3.2 | 0.00 | 0.30 | 0.00 | 62 | 1011.3 |
| 20260510070007 | 8 | 311 | 1.6 | 4.8 | 0.00 | 0.30 | 0.00 | 61 | 1011.2 |
| 20260510065507 | 8 | 313 | 1.6 | 4.8 | 0.00 | 0.30 | 0.00 | 61 | 1011.2 |
| 20260510065007 | 8 | 325 | 0.0 | 3.2 | 0.00 | 0.30 | 0.00 | 65 | 1011.1 |
| 20260510064512 | 8 | 306 | 0.0 | 3.2 | 0.00 | 0.30 | 0.00 | 66 | 1011.1 |
| 20260510064005 | 8 | 306 | 0.0 | 1.6 | 0.00 | 0.30 | 0.00 | 69 | 1011.1 |
| 20260510063503 | 8 | 306 | 0.0 | 3.2 | 0.00 | 0.30 | 0.00 | 67 | 1011.0 |
| 20260510063016 | 8 | 306 | 0.0 | 3.2 | 0.00 | 0.30 | 0.00 | 67 | 1011.0 |
| 20260510062507 | 8 | 306 | 0.0 | 0.0 | 0.00 | 0.30 | 0.00 | 66 | 1011.1 |
| 20260510062011 | 8 | 306 | 0.0 | 3.2 | 0.00 | 0.30 | 0.00 | 67 | 1011.0 |
| 20260510061508 | 8 | 306 | 0.0 | 3.2 | 0.00 | 0.30 | 0.00 | 66 | 1011.0 |
| 20260510061003 | 8 | 16 | 0.0 | 0.0 | 0.00 | 0.30 | 0.00 | 66 | 1010.9 |
| 20260510060503 | 8 | 16 | 0.0 | 0.0 | 0.00 | 0.30 | 0.00 | 66 | 1010.9 |
| 20260510060006 | 8 | 16 | 0.0 | 1.6 | 0.00 | 0.30 | 0.00 | 65 | 1010.8 |
| 20260510055503 | 8 | 16 | 0.0 | 1.6 | 0.00 | 0.30 | 0.00 | 67 | 1010.8 |
| 20260510055003 | 9 | 16 | 0.0 | 0.0 | 0.00 | 0.30 | 0.00 | 68 | 1010.8 |
| 20260510054516 | 9 | 16 | 0.0 | 0.0 | 0.00 | 0.30 | 0.00 | 68 | 1010.8 |
| 20260510054009 | 9 | 16 | 0.0 | 0.0 | 0.00 | 0.30 | 0.00 | 67 | 1010.6 |
| 20260510053508 | 9 | 16 | 0.0 | 0.0 | 0.00 | 0.30 | 0.00 | 65 | 1010.6 |
| 20260510053032 | 10 | 16 | 0.0 | 0.0 | 0.00 | 0.30 | 0.00 | 64 | 1010.4 |
| 20260510052509 | 10 | 16 | 0.0 | 0.0 | 0.00 | 0.30 | 0.00 | 65 | 1010.3 |
| 20260510052012 | 10 | 16 | 0.0 | 0.0 | 0.00 | 0.30 | 0.00 | 62 | 1010.2 |
| 20260510051520 | 10 | 16 | 0.0 | 0.0 | 0.00 | 0.30 | 0.00 | 61 | 1010.0 |
| 20260510051004 | 10 | 16 | 0.0 | 0.0 | 0.00 | 0.30 | 0.00 | 62 | 1009.9 |
| 20260510050508 | 10 | 16 | 0.0 | 0.0 | 0.00 | 0.30 | 0.00 | 61 | 1009.9 |
| 20260510050005 | 10 | 16 | 0.0 | 1.6 | 0.00 | 0.30 | 0.00 | 61 | 1009.8 |
| 20260510045503 | 10 | 16 | 0.0 | 3.2 | 0.00 | 0.30 | 0.00 | 60 | 1009.7 |
| 20260510045003 | 11 | 16 | 0.0 | 3.2 | 0.00 | 0.30 | 0.00 | 60 | 1009.6 |
| 20260510044532 | 11 | 347 | 0.0 | 3.2 | 0.00 | 0.30 | 0.00 | 60 | 1009.5 |
| 20260510044003 | 11 | 321 | 0.0 | 3.2 | 0.00 | 0.30 | 0.00 | 57 | 1009.4 |
| 20260510043507 | 11 | 321 | 0.0 | 3.2 | 0.00 | 0.30 | 0.00 | 56 | 1009.3 |
| 20260510043016 | 11 | 321 | 0.0 | 0.0 | 0.00 | 0.30 | 0.00 | 56 | 1009.2 |
| 20260510042506 | 12 | 321 | 0.0 | 0.0 | 0.00 | 0.30 | 0.00 | 57 | 1009.1 |
| 20260510042008 | 12 | 321 | 0.0 | 1.6 | 0.00 | 0.30 | 0.00 | 55 | 1008.9 |
| 20260510041515 | 12 | 321 | 0.0 | 3.2 | 0.00 | 0.30 | 0.00 | 52 | 1008.9 |
| 20260510041007 | 12 | 321 | 0.0 | 3.2 | 0.00 | 0.30 | 0.00 | 50 | 1009.0 |
| 20260510040510 | 12 | 321 | 0.0 | 3.2 | 0.00 | 0.30 | 0.00 | 50 | 1008.9 |
| 20260510040031 | 13 | 317 | 0.0 | 3.2 | 0.00 | 0.30 | 0.00 | 49 | 1008.9 |
| 20260510035507 | 13 | 298 | 0.0 | 3.2 | 0.00 | 0.30 | 0.30 | 48 | 1008.8 |
| 20260510035007 | 13 | 325 | 0.0 | 3.2 | 0.00 | 0.30 | 0.30 | 48 | 1008.8 |
| 20260510034508 | 13 | 328 | 0.0 | 3.2 | 0.00 | 0.30 | 0.30 | 47 | 1008.7 |
| 20260510034003 | 13 | 333 | 1.6 | 3.2 | 0.00 | 0.30 | 0.30 | 47 | 1008.6 |
| 20260510033506 | 13 | 315 | 0.0 | 4.8 | 0.00 | 0.30 | 0.30 | 46 | 1008.4 |
| 20260510033012 | 13 | 311 | 0.0 | 4.8 | 0.00 | 0.30 | 0.30 | 46 | 1008.4 |
| 20260510032506 | 14 | 323 | 1.6 | 4.8 | 0.00 | 0.30 | 0.30 | 46 | 1008.3 |
| 20260510032013 | 14 | 315 | 1.6 | 4.8 | 0.00 | 0.30 | 0.30 | 45 | 1008.2 |
| 20260510031516 | 14 | 342 | 0.0 | 4.8 | 0.00 | 0.30 | 0.30 | 46 | 1008.0 |
| 20260510031006 | 14 | 329 | 0.0 | 6.4 | 0.00 | 0.30 | 0.30 | 44 | 1007.9 |
| 20260510030511 | 14 | 236 | 1.6 | 8.0 | 0.00 | 0.30 | 0.30 | 44 | 1007.8 |
| 20260510030019 | 15 | 352 | 0.0 | 8.0 | 0.00 | 0.30 | 0.30 | 44 | 1007.7 |
| 20260510025510 | 15 | 299 | 3.2 | 6.4 | 0.00 | 0.30 | 0.30 | 44 | 1007.7 |
| 20260510025007 | 15 | 300 | 0.0 | 6.4 | 0.00 | 0.30 | 0.30 | 43 | 1007.5 |
| 20260510024516 | 15 | 360 | 1.6 | 6.4 | 0.00 | 0.30 | 0.30 | 42 | 1007.4 |
| 20260510024003 | 15 | 273 | 1.6 | 4.8 | 0.00 | 0.30 | 0.30 | 42 | 1007.5 |
| 20260510023503 | 15 | 309 | 1.6 | 11.3 | 0.00 | 0.30 | 0.30 | 42 | 1007.3 |
| 20260510023008 | 16 | 316 | 1.6 | 12.9 | 0.00 | 0.30 | 0.30 | 41 | 1007.3 |
| 20260510022506 | 16 | 340 | 4.8 | 12.9 | 0.00 | 0.30 | 0.30 | 41 | 1007.1 |
| 20260510022009 | 16 | 360 | 4.8 | 9.7 | 0.00 | 0.30 | 0.30 | 43 | 1007.0 |
| 20260510021514 | 16 | 335 | 1.6 | 11.3 | 0.00 | 0.30 | 0.30 | 45 | 1006.9 |
| 20260510021006 | 16 | 325 | 1.6 | 11.3 | 0.00 | 0.30 | 0.30 | 46 | 1006.6 |
| 20260510020507 | 15 | 340 | 4.8 | 9.7 | 0.00 | 0.30 | 0.30 | 48 | 1006.5 |
| 20260510020021 | 15 | 321 | 1.6 | 4.8 | 0.00 | 0.30 | 0.30 | 51 | 1006.3 |
| 20260510015510 | 15 | 309 | 0.0 | 3.2 | 0.00 | 0.30 | 0.30 | 54 | 1006.2 |
| 20260510015012 | 15 | 317 | 0.0 | 3.2 | 0.00 | 0.30 | 0.30 | 53 | 1006.0 |
| 20260510014517 | 15 | 333 | 0.0 | 3.2 | 0.00 | 0.30 | 0.30 | 55 | 1006.0 |
| 20260510014007 | 15 | 333 | 0.0 | 3.2 | 0.00 | 0.30 | 0.30 | 56 | 1005.7 |
| 20260510013505 | 15 | 333 | 0.0 | 3.2 | 0.00 | 0.30 | 0.30 | 55 | 1005.6 |
| 20260510013010 | 15 | 333 | 0.0 | 0.0 | 0.00 | 0.30 | 0.30 | 55 | 1005.5 |
| 20260510012503 | 15 | 333 | 0.0 | 0.0 | 0.00 | 0.30 | 0.30 | 54 | 1005.2 |
| 20260510012007 | 15 | 333 | 0.0 | 0.0 | 0.00 | 0.30 | 0.30 | 52 | 1005.0 |
| 20260510011518 | 15 | 333 | 0.0 | 0.0 | 0.00 | 0.30 | 0.30 | 51 | 1004.9 |
| 20260510011007 | 16 | 333 | 0.0 | 0.0 | 0.00 | 0.30 | 0.30 | 49 | 1004.9 |
| 20260510010507 | 16 | 333 | 0.0 | 0.0 | 0.00 | 0.30 | 0.30 | 48 | 1004.8 |
| 20260510010025 | 16 | 333 | 0.0 | 1.6 | 0.00 | 0.30 | 0.30 | 48 | 1004.6 |
| 20260510005507 | 16 | 333 | 0.0 | 1.6 | 0.00 | 0.30 | 0.30 | 45 | 1004.6 |
| 20260510005011 | 17 | 327 | 0.0 | 3.2 | 0.00 | 0.30 | 0.30 | 44 | 1004.5 |
| 20260510004518 | 17 | 327 | 0.0 | 3.2 | 0.00 | 0.30 | 0.30 | 45 | 1004.5 |
| 20260510004007 | 17 | 327 | 0.0 | 3.2 | 0.00 | 0.30 | 0.30 | 44 | 1004.4 |
| 20260510003509 | 17 | 327 | 0.0 | 3.2 | 0.00 | 0.30 | 0.30 | 43 | 1004.4 |
| 20260510003026 | 18 | 5 | 1.6 | 9.7 | 0.00 | 0.30 | 0.30 | 40 | 1004.3 |
| 20260510002510 | 18 | 287 | 4.8 | 9.7 | 0.00 | 0.30 | 0.30 | 41 | 1004.3 |
| 20260510002006 | 18 | 9 | 0.0 | 6.4 | 0.00 | 0.30 | 0.30 | 39 | 1004.2 |
| 20260510001512 | 18 | 345 | 0.0 | 6.4 | 0.00 | 0.30 | 0.30 | 39 | 1004.1 |
| 20260510001009 | 18 | 19 | 1.6 | 6.4 | 0.00 | 0.30 | 0.30 | 39 | 1004.0 |
| 20260510000504 | 18 | 304 | 0.0 | 4.8 | 0.00 | 0.30 | 0.30 | 40 | 1003.9 |
| 20260510000024 | 18 | 28 | 1.6 | 12.9 | 0.00 | 0.30 | 0.30 | 37 | 1003.9 |
| 20260509235505 | 18 | 274 | 3.2 | 12.9 | 0.00 | 0.30 | 0.30 | 37 | 1003.9 |
| 20260509235010 | 19 | 331 | 3.2 | 14.5 | 0.00 | 0.30 | 0.30 | 37 | 1003.8 |
| 20260509234530 | 19 | 278 | 3.2 | 14.5 | 0.00 | 0.30 | 0.30 | 36 | 1003.8 |
| 20260509234013 | 19 | 264 | 1.6 | 4.8 | 0.00 | 0.30 | 0.30 | 41 | 1003.7 |
| 20260509233506 | 19 | 344 | 1.6 | 12.9 | 0.00 | 0.30 | 0.30 | 38 | 1003.7 |
| 20260509233026 | 19 | 290 | 4.8 | 12.9 | 0.00 | 0.30 | 0.30 | 36 | 1003.7 |
| 20260509232510 | 19 | 85 | 1.6 | 14.5 | 0.00 | 0.30 | 0.30 | 37 | 1003.6 |
| 20260509232007 | 19 | 244 | 3.2 | 14.5 | 0.00 | 0.30 | 0.30 | 36 | 1003.6 |
| 20260509231521 | 19 | 261 | 4.8 | 16.1 | 0.00 | 0.30 | 0.30 | 35 | 1003.7 |
| 20260509231003 | 20 | 298 | 1.6 | 16.1 | 0.00 | 0.30 | 0.30 | 36 | 1003.7 |
| 20260509230504 | 20 | 63 | 3.2 | 14.5 | 0.00 | 0.30 | 0.30 | 35 | 1003.6 |
| 20260509230026 | 20 | 333 | 4.8 | 14.5 | 0.00 | 0.30 | 0.30 | 34 | 1003.6 |
| 20260509225509 | 20 | 267 | 1.6 | 17.7 | 0.00 | 0.30 | 0.30 | 34 | 1003.6 |
| 20260509225009 | 20 | 180 | 6.4 | 17.7 | 0.00 | 0.30 | 0.30 | 33 | 1003.4 |
| 20260509224519 | 21 | 327 | 4.8 | 17.7 | 0.00 | 0.30 | 0.30 | 33 | 1003.4 |
| 20260509224008 | 21 | 13 | 3.2 | 16.1 | 0.00 | 0.30 | 0.30 | 35 | 1003.2 |
| 20260509223510 | 21 | 263 | 1.6 | 30.6 | 0.00 | 0.30 | 0.30 | 33 | 1003.2 |
| 20260509223021 | 21 | 269 | 8.0 | 30.6 | 0.00 | 0.30 | 0.30 | 34 | 1003.1 |
| 20260509222506 | 21 | 267 | 1.6 | 22.5 | 0.00 | 0.30 | 0.30 | 34 | 1003.0 |
| 20260509222008 | 21 | 220 | 4.8 | 22.5 | 0.00 | 0.30 | 0.30 | 33 | 1002.7 |
| 20260509221521 | 21 | 299 | 8.0 | 22.5 | 0.00 | 0.30 | 0.30 | 34 | 1002.8 |
| 20260509221010 | 21 | 307 | 4.8 | 20.9 | 0.00 | 0.30 | 0.30 | 32 | 1002.5 |
| 20260509220508 | 21 | 294 | 3.2 | 20.9 | 0.00 | 0.30 | 0.30 | 30 | 1002.5 |
| 20260509220011 | 21 | 86 | 3.2 | 19.3 | 0.00 | 0.30 | 0.30 | 31 | 1002.5 |
| 20260509215507 | 21 | 26 | 3.2 | 17.7 | 0.00 | 0.30 | 0.30 | 32 | 1002.3 |
| 20260509215008 | 21 | 255 | 4.8 | 16.1 | 0.00 | 0.30 | 0.30 | 32 | 1002.4 |
| 20260509214517 | 21 | 55 | 1.6 | 14.5 | 0.00 | 0.30 | 0.30 | 36 | 1002.4 |
| 20260509214008 | 21 | 5 | 4.8 | 16.1 | 0.00 | 0.30 | 0.30 | 34 | 1002.3 |
| 20260509213508 | 21 | 298 | 4.8 | 16.1 | 0.00 | 0.30 | 0.30 | 35 | 1002.2 |
| 20260509213021 | 21 | 342 | 1.6 | 11.3 | 0.00 | 0.30 | 0.30 | 36 | 1002.2 |
| 20260509212510 | 21 | 321 | 4.8 | 11.3 | 0.00 | 0.30 | 0.30 | 34 | 1002.2 |
| 20260509212005 | 21 | 282 | 1.6 | 9.7 | 0.00 | 0.30 | 0.30 | 36 | 1002.0 |
| 20260509211506 | 21 | 202 | 4.8 | 9.7 | 0.00 | 0.30 | 0.30 | 36 | 1002.1 |
| 20260509211004 | 21 | 43 | 3.2 | 8.0 | 0.00 | 0.30 | 0.30 | 40 | 1002.2 |
| 20260509210505 | 21 | 269 | 1.6 | 14.5 | 0.00 | 0.30 | 0.30 | 39 | 1002.1 |
| 20260509210016 | 21 | 352 | 6.4 | 14.5 | 0.00 | 0.30 | 0.30 | 37 | 1002.2 |
| 20260509205506 | 20 | 153 | 1.6 | 12.9 | 0.00 | 0.30 | 0.30 | 40 | 1002.3 |
| 20260509205006 | 20 | 243 | 3.2 | 14.5 | 0.00 | 0.30 | 0.30 | 40 | 1002.4 |